STARLINK-35775, 67038

Orbit data source: Space-Track

STARLINK-35775, 67038 is a payload satellite owned by SpaceX/Seattle (US) in LEO that was launched on Thu, 11 Dec 2025 UTC via an FALCON 9 launch vehicle from the Air Force Eastern Test Range (AFETR). Payload-class satellites include a variety of spacecraft equipped with specific instruments for various scientific and technological missions. These include communications satellites like Starlink; space stations such as the ISS; scientific satellites like the Hubble; Earth observation satellites from companies like Planet Labs, Umbra, and HawkEye 360; GPS; miniature CubeSats for education and research; and military/defense satellites.

Loading next visibility...
Identifier
67038, 2025-294J
Orbit
LEO
Country
Flag of USUS
Related business
Manufacturer
SpaceX/Seattle
Mission
Operational Commercial Communications
Bus & Motor
STARLINK V2MO, Unknown motor
Mass
575 kg wet, ~530 kg dry
Launch date (UTC)
2025-12-11 (6 months ago)
Launch vehicle
FALCON 9
Launch site
Air Force Eastern Test Range (AFETR)
Object type
Payload
Rocket body
Debris
Shape & HBR
Box + 2 Pan, 17.7 m
Radar Cross Section
36.964 m², Large (>1 m²)

Expand to show TLE details & history
Last TLE update: 18 hours ago

TLE from 18 hours ago
0 STARLINK-35775
1 67038U 25294J   26171.09743956  .00007588  00000-0  28492-3 0  9992
2 67038  43.0013 179.5164 0001725 278.4045  81.6611 15.27585676 30474
Epoch: 2026-06-20T02:20Z
TLE epoch observation values (Epoch: 2026-06-20T02:20:18.777Z)
Latitude
-0.00005°
Longitude
-123.87884°
Altitude
482.636 km
Speed
7.626 km/s
True Right ascension
11h 58m 03s
True Declination
0° 00' 00"
Sunlit
Object was in daylight at epoch
Visualization orbit readout
Latitude
Unknown
Longitude
Unknown
Altitude
Unknown
Speed
Unknown
Apparent Right ascension
Unknown
Apparent Declination
Unknown
Sunlit
N/A
Visualization observer readout
Local Sidereal Time
07:16:40
Azimuth
Unknown
Elevation
Unknown
Doppler factor
Unknown
Orbital elements
Apogee altitude
486.161 km
Perigee altitude
483.793 km
Semi-major axis
6,863.114 km
Eccentricity
0.00017
Inclination
43.0013°
RAAN
179.5164°
Arg. of periapsis
278.4045°
True anomaly
81.68066°
Mean anomaly
81.6611°
Eccentric anomaly
81.67088°
Mean motion
3.81734 °/min
Orbital period
94.31 mins
BSTAR
0.00028492
Loading maneuver chart data...
Computing Atmospheric mass density...
Loading historical data...
Loading historical data...
Loading historical data...
Loading historical data...
Loading historical data...
Loading historical data...
Loading historical data...

Documentation

Showing up to 5 results
|